Wind_Speed
36 35 36 36 36 37 37 37 37 35 34 33 33 33 32 32 32 32 31 32 32 32 31 32 33 34 35 36 37 38 39 40 40 40 40 40 40 40 41 41 42 42 43 44
37 36 36 37 37 37 37 37 36 36 35 33 33 34 34 33 33 32 31 31 32 32 32 33 34 34 35 36 37 38 39 39 39 39 39 39 39 40 40 41 41 42 42 43
37 37 37 38 37 37 37 36 36 35 33 33 33 33 33 33 33 33 32 32 33 33 33 34 34 34 35 36 37 37 37 37 38 38 39 39 39 39 40 40 40 41 41 41
34 35 37 37 36 36 36 36 35 34 33 33 33 33 33 32 33 32 33 33 33 34 34 34 35 35 35 36 36 36 36 36 37 38 38 38 38 38 39 39 39 39 39 39
33 34 35 35 34 34 35 35 35 35 35 34 34 34 33 33 32 32 32 33 34 34 34 35 36 36 36 35 35 35 36 36 37 37 37 37 37 37 37 37 37 37 37 36
31 33 34 33 33 33 34 34 34 35 35 36 35 35 33 33 33 33 33 33 33 33 34 35 35 35 35 34 34 34 34 35 35 36 36 36 36 36 36 36 35 35 34 34
28 29 30 30 30 32 33 33 33 33 33 35 35 35 34 34 34 33 33 33 32 32 33 34 35 35 34 34 34 34 35 35 35 35 35 35 35 34 34 34 34 33 33 33
27 28 27 28 29 30 31 32 32 32 31 32 33 34 34 34 34 34 33 33 33 33 33 34 34 34 34 34 34 34 34 34 34 34 35 34 34 34 34 34 32 32 32 32
26 26 26 27 28 29 29 29 30 31 30 30 30 31 32 32 33 33 33 33 33 33 34 34 34 33 34 34 34 34 34 33 33 33 33 32 33 33 33 32 31 30 30 28
24 24 25 26 26 27 27 28 28 29 28 28 28 28 29 30 30 31 32 33 33 33 34 33 33 33 33 34 34 33 33 33 33 32 31 31 31 30 30 29 28 28 27 28
23 24 25 25 25 25 26 27 27 27 28 28 28 28 28 29 29 30 31 32 32 33 33 32 32 32 32 32 33 33 33 33 33 32 31 30 29 28 28 27 27 27 27 27
23 24 25 24 24 24 25 25 26 26 27 28 28 27 28 28 28 28 29 30 30 31 31 31 31 30 30 30 31 31 31 31 30 29 29 28 27 26 26 26 26 26 26 26
23 24 25 25 25 25 25 25 25 26 26 26 27 27 26 26 27 27 27 28 28 28 28 29 29 29 29 29 29 29 29 28 27 26 26 25 25 24 25 25 25 25 25 25
23 23 23 24 24 24 24 24 24 25 25 25 25 26 26 25 25 26 26 26 26 26 26 26 27 27 27 26 26 26 25 25 24 24 23 22 22 23 23 23 23 24 24 24
22 22 22 22 23 23 23 23 23 23 24 24 24 24 24 24 24 24 24 25 24 24 24 24 24 25 25 24 24 24 23 22 22 21 21 20 21 21 21 22 22 23 23 24
22 22 22 23 22 21 21 22 22 21 22 22 23 23 23 23 23 23 23 24 24 24 24 24 24 24 24 24 23 22 22 21 20 20 20 20 20 20 21 21 22 22 22 23
20 20 21 22 21 21 21 21 21 21 22 22 22 22 22 22 23 23 22 23 23 23 23 23 23 23 23 23 22 21 21 20 19 19 19 20 20 21 22 22 22 22 22 22
19 19 19 20 20 21 21 21 21 21 21 21 21 21 22 22 22 21 21 22 21 22 23 22 22 21 20 20 20 20 19 19 19 19 20 20 21 21 21 22 22 22 22 23
19 19 19 19 20 20 20 20 20 21 21 21 21 21 21 22 22 21 22 22 21 21 22 22 21 20 19 19 19 19 19 19 19 20 20 21 21 22 21 22 22 22 22 22
19 19 19 19 19 19 19 19 20 20 21 21 21 21 21 21 21 21 22 22 21 21 20 20 19 19 19 19 19 19 19 19 19 20 20 21 21 21 22 22 22 21 21 20
18 19 19 20 20 19 19 19 19 20 20 20 20 20 20 20 20 20 20 20 19 19 18 18 18 18 18 18 18 18 18 19 19 20 21 21 22 22 22 22 21 21 20 19
18 18 18 19 19 19 19 19 19 20 19 19 19 19 19 19 19 19 18 18 17 17 17 17 17 17 16 17 17 18 18 19 19 20 21 21 22 22 21 21 20 19 18 17
17 17 18 18 19 19 20 20 19 19 19 19 19 19 20 19 19 18 17 17 17 16 16 16 16 16 16 17 17 17 17 18 18 19 19 20 20 20 19 18 17 17 16 15
16 16 17 18 19 19 20 19 19 19 19 19 19 19 19 19 19 18 18 17 17 17 16 16 16 17 17 17 17 17 17 18 18 18 18 18 18 18 17 16 16 15 14 13
16 16 16 17 18 18 19 19 19 19 19 18 18 19 19 19 19 18 18 17 17 17 16 16 16 17 17 17 17 17 17 18 18 18 18 18 17 16 15 15 13 12 12 12
16 16 16 17 17 18 18 18 17 17 17 17 17 17 18 18 18 17 17 17 17 17 17 16 16 16 16 16 16 16 17 17 17 16 16 16 15 15 13 12 11 10 10 9
16 16 16 16 16 16 16 16 16 16 17 17 17 17 16 16 17 17 16 16 16 16 16 16 16 16 16 15 15 15 15 15 15 15 15 15 15 14 13 12 10 9 8 7
Wind_Direction
238 238 238 238 238 239 240 242 244 245 246 247 250 252 254 257 259 263 264 266 268 270 273 273 274 275 276 277 279 281 283 284 285 286 286 286 285 285 287 288 289 290 291 292
238 239 240 240 238 239 240 241 243 245 246 247 250 252 254 257 260 262 264 265 268 270 272 274 276 277 278 278 280 281 283 284 284 285 286 286 286 287 288 290 291 292 293 293
238 239 241 241 240 242 243 243 245 246 246 246 248 251 254 257 259 261 263 265 268 271 272 273 275 277 279 280 281 282 282 283 284 285 286 286 287 288 290 292 292 293 294 294
237 239 242 242 242 243 244 245 245 245 245 247 248 251 254 257 259 261 263 266 269 270 271 273 275 277 280 281 280 280 281 283 284 285 286 288 288 290 291 292 293 294 295 295
238 240 241 241 242 243 244 245 247 248 247 249 251 253 255 256 258 261 263 266 268 270 272 274 276 279 280 281 281 281 281 282 284 286 287 288 288 289 291 292 293 295 296 295
241 242 242 242 243 243 244 244 245 249 250 251 252 254 255 257 259 261 264 266 268 269 272 275 277 278 279 279 280 282 282 283 285 286 287 288 288 290 291 292 294 295 295 297
241 242 243 243 244 243 244 245 246 249 251 252 254 256 256 257 259 261 264 267 269 271 274 277 278 278 278 279 281 282 283 284 286 287 287 288 289 290 291 292 294 295 296 298
240 242 244 244 245 245 246 247 248 250 251 253 254 256 257 257 259 261 264 267 270 273 276 278 278 278 278 280 281 283 284 286 287 288 288 288 289 290 292 293 294 295 297 298
242 244 246 246 246 246 247 248 249 250 251 253 255 257 257 259 260 261 263 267 270 274 277 277 277 278 279 281 282 283 284 286 287 288 289 289 290 292 293 293 294 296 298 299
242 242 245 245 245 245 246 248 249 250 251 253 255 257 258 260 261 262 264 267 269 273 275 276 277 279 280 281 282 283 284 284 285 286 287 288 290 291 293 293 295 297 298 300
244 243 243 244 245 246 246 248 250 252 254 257 257 259 260 260 261 264 266 268 270 272 273 274 276 279 281 281 282 282 283 283 283 284 286 287 288 289 291 292 295 296 298 299
244 244 244 245 246 248 249 251 253 255 257 258 260 262 261 261 262 265 266 267 270 272 272 274 276 279 281 282 283 282 283 283 283 284 285 286 287 289 291 293 296 298 299 301
245 246 246 246 248 250 251 252 253 254 256 259 259 260 262 262 263 265 267 268 270 271 273 274 276 278 279 281 284 285 284 283 283 284 286 288 288 291 294 296 298 300 302 303
248 249 247 247 248 249 250 250 251 253 255 257 259 260 262 263 264 265 268 269 270 270 272 274 276 277 278 280 283 284 284 283 283 286 288 289 291 294 297 299 300 301 303 305
249 249 247 247 247 247 249 249 250 253 255 257 259 261 262 262 263 266 269 269 269 270 272 274 275 276 277 279 281 282 283 283 285 287 288 291 294 297 300 302 302 302 303 305
249 249 248 247 248 248 249 250 251 253 255 259 260 262 262 263 264 267 269 268 269 270 274 276 277 278 278 279 281 281 282 284 286 288 287 289 293 296 300 302 304 304 304 306
249 249 248 247 248 250 251 251 251 254 257 259 262 262 263 265 266 268 268 269 270 271 276 278 279 280 280 279 280 281 282 283 284 287 288 288 292 297 300 303 304 306 308 309
249 248 247 248 249 250 250 251 254 256 256 258 260 261 263 265 267 267 267 268 270 273 276 278 278 278 279 281 281 281 280 282 285 288 290 291 293 297 300 302 304 306 306 309
247 248 248 248 249 250 250 251 254 257 257 259 260 261 262 263 264 265 267 268 270 273 275 276 275 275 278 280 280 280 281 283 286 289 292 295 296 297 299 302 303 303 304 306
248 248 247 247 247 249 250 252 254 257 258 259 260 260 259 260 262 265 268 270 271 273 274 273 274 275 277 279 279 281 281 282 286 289 293 296 297 296 297 300 301 302 302 303
249 248 246 247 248 250 252 254 256 257 258 259 259 257 258 259 262 265 268 270 271 272 272 273 275 276 278 279 279 280 282 284 286 289 293 296 297 297 297 298 299 299 298 299
248 247 246 247 248 249 251 254 256 258 259 259 257 255 257 259 262 264 266 267 269 270 272 275 277 278 277 279 280 282 285 287 289 292 294 296 297 298 297 296 296 296 295 295
247 248 248 249 250 252 254 257 259 260 260 259 256 256 258 260 261 262 264 267 270 273 276 278 278 278 279 280 282 284 287 288 291 294 296 299 300 300 298 296 295 294 291 289
249 249 250 252 253 256 258 259 260 260 259 257 257 257 259 260 260 262 265 267 269 272 274 275 276 278 280 281 283 285 286 287 290 293 296 299 301 302 300 298 296 293 288 284
249 251 253 254 255 256 256 257 257 256 255 254 255 257 258 259 261 262 264 266 268 270 271 272 274 277 280 283 284 285 286 287 289 292 294 297 298 298 299 299 297 294 289 284
249 253 254 255 256 256 255 253 252 251 251 252 255 258 259 259 259 259 261 264 265 267 269 270 273 275 278 282 285 287 288 289 290 292 295 296 297 297 297 296 296 295 291 283
249 251 252 253 253 252 250 249 250 251 254 256 257 258 259 257 255 256 259 262 265 266 268 270 271 273 277 281 285 288 291 292 292 292 294 296 296 295 294 293 291 289 285 277
Height
5565 5569 5573 5577 5580 5584 5587 5591 5595 5599 5602 5606 5606 5608 5609 5611 5612 5613 5614 5614 5614 5614 5613 5612 5610 5609 5607 5605 5602 5600 5597 5594 5591 5587 5584 5581 5578 5575 5573 5570 5567 5563 5560 5556
5555 5559 5563 5566 5570 5574 5578 5581 5585 5589 5593 5596 5597 5598 5600 5601 5603 5604 5605 5605 5605 5604 5604 5602 5600 5599 5597 5594 5592 5589 5586 5583 5580 5577 5574 5571 5568 5565 5562 5559 5556 5553 5549 5545
5547 5551 5553 5557 5562 5566 5569 5573 5576 5579 5584 5585 5587 5589 5590 5592 5593 5595 5595 5595 5595 5595 5594 5592 5591 5589 5587 5584 5582 5579 5576 5573 5570 5567 5564 5561 5558 5556 5553 5550 5546 5543 5539 5535
5538 5542 5545 5552 5554 5557 5560 5563 5566 5570 5573 5576 5578 5580 5581 5582 5583 5584 5585 5586 5586 5585 5584 5582 5581 5579 5576 5574 5571 5568 5566 5563 5560 5558 5555 5552 5549 5546 5543 5540 5537 5533 5530 5526
5530 5533 5536 5542 5545 5548 5550 5554 5557 5560 5563 5565 5568 5570 5572 5573 5574 5575 5576 5576 5575 5575 5574 5572 5571 5569 5566 5564 5561 5559 5556 5554 5551 5548 5546 5543 5540 5537 5534 5531 5528 5524 5521 5517
5522 5525 5529 5534 5536 5538 5542 5545 5548 5550 5553 5555 5558 5561 5563 5563 5564 5565 5565 5565 5565 5565 5564 5562 5561 5558 5557 5554 5552 5550 5547 5545 5542 5539 5536 5533 5531 5528 5525 5522 5519 5515 5512 5508
5514 5516 5520 5524 5527 5529 5534 5537 5539 5541 5543 5546 5548 5551 5553 5553 5554 5555 5555 5555 5555 5555 5554 5552 5550 5549 5547 5545 5543 5541 5538 5535 5533 5530 5527 5524 5522 5519 5516 5513 5510 5507 5504 5501
5507 5509 5515 5516 5518 5521 5524 5527 5529 5532 5534 5536 5538 5540 5541 5543 5544 5544 5545 5545 5545 5545 5544 5542 5540 5539 5537 5536 5534 5531 5529 5526 5524 5521 5518 5516 5513 5510 5508 5505 5502 5499 5496 5493
5501 5505 5506 5508 5510 5512 5515 5518 5520 5523 5525 5527 5529 5530 5532 5533 5534 5535 5535 5535 5535 5534 5533 5532 5530 5529 5528 5526 5524 5522 5520 5518 5515 5513 5510 5507 5505 5502 5499 5496 5493 5491 5488 5485
5494 5496 5498 5500 5502 5504 5507 5509 5512 5514 5517 5518 5520 5521 5522 5523 5524 5525 5526 5526 5525 5524 5524 5522 5521 5520 5518 5517 5515 5513 5511 5509 5506 5504 5502 5499 5496 5494 5491 5488 5486 5483 5480 5478
5486 5489 5491 5493 5495 5497 5499 5501 5504 5506 5508 5510 5511 5513 5514 5514 5515 5515 5516 5516 5515 5515 5514 5513 5512 5510 5509 5507 5505 5504 5502 5500 5498 5496 5494 5491 5489 5486 5484 5481 5478 5475 5473 5470
5480 5482 5484 5487 5488 5490 5492 5494 5496 5498 5499 5501 5502 5504 5504 5505 5506 5506 5506 5506 5505 5505 5504 5503 5502 5501 5500 5498 5496 5495 5493 5491 5489 5487 5485 5483 5481 5479 5476 5474 5471 5468 5465 5463
5473 5475 5477 5479 5481 5483 5484 5486 5488 5490 5491 5493 5494 5495 5496 5496 5497 5497 5497 5497 5496 5496 5495 5494 5493 5492 5491 5489 5488 5486 5484 5482 5481 5479 5477 5475 5473 5472 5470 5467 5464 5461 5459 5456
5466 5468 5470 5472 5474 5476 5477 5479 5480 5482 5484 5485 5486 5487 5488 5488 5488 5489 5489 5488 5488 5487 5486 5486 5485 5484 5482 5481 5479 5478 5476 5474 5473 5472 5470 5468 5467 5465 5463 5461 5459 5456 5453 5450
5459 5461 5463 5465 5467 5469 5470 5472 5473 5475 5476 5477 5478 5479 5480 5481 5481 5481 5481 5480 5480 5479 5479 5478 5477 5476 5474 5473 5472 5470 5469 5468 5466 5465 5463 5462 5461 5459 5457 5454 5452 5450 5447 5444
5453 5454 5456 5458 5460 5462 5463 5465 5467 5468 5469 5470 5471 5472 5472 5473 5474 5474 5473 5473 5473 5472 5471 5470 5469 5468 5467 5466 5464 5463 5462 5461 5460 5459 5458 5456 5455 5453 5451 5449 5447 5444 5442 5439
5446 5448 5450 5451 5453 5455 5457 5458 5459 5461 5462 5463 5464 5464 5465 5466 5466 5466 5466 5466 5465 5465 5464 5463 5462 5461 5460 5459 5458 5457 5456 5455 5454 5453 5452 5450 5449 5447 5446 5444 5441 5439 5436 5433
5440 5442 5443 5445 5447 5449 5450 5451 5452 5454 5455 5456 5457 5457 5458 5459 5459 5459 5459 5459 5458 5458 5457 5456 5455 5454 5453 5452 5451 5451 5450 5449 5448 5447 5446 5444 5443 5441 5439 5438 5435 5433 5430 5427
5434 5436 5437 5439 5441 5442 5444 5445 5446 5447 5448 5449 5450 5451 5452 5452 5452 5452 5452 5452 5452 5451 5451 5450 5449 5448 5447 5446 5445 5445 5444 5443 5442 5441 5440 5438 5437 5435 5433 5431 5429 5427 5424 5422
5429 5430 5432 5433 5435 5436 5438 5439 5440 5441 5442 5442 5443 5444 5445 5445 5446 5446 5446 5445 5445 5445 5444 5443 5443 5442 5441 5440 5439 5439 5438 5437 5436 5435 5434 5432 5430 5428 5427 5425 5423 5420 5418 5416
5423 5424 5426 5427 5429 5430 5432 5433 5434 5434 5435 5436 5437 5437 5438 5438 5439 5439 5439 5439 5439 5438 5438 5437 5437 5436 5435 5434 5433 5433 5432 5431 5430 5429 5427 5426 5424 5422 5420 5418 5416 5414 5412 5410
5417 5418 5420 5421 5423 5424 5425 5426 5427 5428 5429 5430 5430 5431 5432 5432 5433 5433 5433 5433 5433 5432 5432 5431 5431 5430 5429 5428 5428 5427 5426 5425 5424 5422 5421 5419 5417 5415 5413 5411 5409 5408 5406 5404
5412 5413 5414 5415 5417 5418 5419 5420 5421 5422 5422 5423 5424 5425 5425 5426 5427 5427 5427 5427 5427 5426 5426 5426 5425 5424 5424 5423 5422 5421 5420 5419 5418 5416 5414 5413 5411 5409 5407 5405 5403 5402 5400 5399
5406 5408 5409 5410 5411 5412 5413 5414 5414 5415 5416 5417 5417 5418 5419 5420 5420 5421 5421 5421 5421 5421 5421 5420 5419 5419 5418 5417 5416 5415 5414 5413 5412 5410 5409 5407 5405 5403 5401 5400 5398 5397 5395 5394
5401 5402 5403 5404 5405 5406 5406 5407 5408 5409 5409 5410 5411 5412 5413 5413 5414 5414 5415 5415 5415 5415 5415 5414 5414 5413 5412 5412 5411 5410 5409 5407 5406 5405 5403 5402 5400 5398 5396 5395 5393 5392 5391 5390
5396 5397 5398 5398 5399 5400 5400 5401 5402 5403 5403 5404 5405 5406 5406 5407 5407 5408 5409 5409 5409 5409 5409 5409 5408 5408 5407 5406 5405 5404 5403 5402 5400 5399 5398 5396 5395 5393 5392 5390 5389 5388 5387 5386
5391 5391 5392 5393 5393 5394 5395 5395 5396 5397 5398 5398 5399 5400 5400 5401 5402 5402 5403 5403 5403 5403 5403 5403 5403 5402 5402 5401 5400 5399 5398 5396 5395 5394 5392 5391 5390 5388 5387 5386 5385 5384 5384 5383